| time (UTC) | temp C | wind direction | speed KPH | gust KPH | rain 1hr cm | rain 24hr cm | rain mn cm | humidity % | barometer mb |
| 20260906070011 | 30 | 348 | 1.6 | 6.4 | 0.00 | 0.10 | 0.00 | 80 | 1009.6 |
| 20260906064505 | 30 | 290 | 3.2 | 9.7 | 0.00 | 0.43 | 0.10 | 80 | 1009.6 |
| 20260906063007 | 30 | 346 | 3.2 | 8.0 | 0.00 | 0.43 | 0.10 | 80 | 1009.6 |
| 20260906061615 | 30 | 316 | 3.2 | 8.0 | 0.00 | 0.43 | 0.10 | 79 | 1009.7 |
| 20260906060149 | 30 | 333 | 1.6 | 8.0 | 0.00 | 0.43 | 0.10 | 78 | 1009.9 |
| 20260906054537 | 30 | 325 | 4.8 | 9.7 | 0.00 | 0.43 | 0.10 | 78 | 1010.1 |
| 20260906053009 | 31 | 325 | 1.6 | 6.4 | 0.00 | 0.43 | 0.10 | 78 | 1010.2 |
| 20260906051559 | 31 | 328 | 3.2 | 8.0 | 0.00 | 0.43 | 0.10 | 78 | 1010.3 |
| 20260906050137 | 31 | 305 | 4.8 | 8.0 | 0.00 | 0.43 | 0.10 | 77 | 1010.4 |
| 20260906044519 | 31 | 321 | 1.6 | 6.4 | 0.00 | 0.46 | 0.10 | 77 | 1010.5 |
| 20260906043018 | 31 | 337 | 3.2 | 8.0 | 0.00 | 0.46 | 0.10 | 77 | 1010.3 |
| 20260906041557 | 31 | 333 | 3.2 | 9.7 | 0.00 | 0.46 | 0.10 | 76 | 1010.1 |
| 20260906040148 | 31 | 298 | 4.8 | 14.5 | 0.00 | 0.46 | 0.10 | 77 | 1010.2 |
| 20260906034528 | 31 | 277 | 6.4 | 19.3 | 0.00 | 0.46 | 0.10 | 77 | 1010.1 |
| 20260906033005 | 31 | 322 | 6.4 | 16.1 | 0.00 | 0.46 | 0.10 | 76 | 1009.9 |
| 20260906031551 | 31 | 302 | 6.4 | 14.5 | 0.00 | 0.46 | 0.10 | 76 | 1009.9 |
| 20260906030132 | 31 | 271 | 8.0 | 20.9 | 0.00 | 0.46 | 0.10 | 78 | 1009.7 |
| 20260906024514 | 31 | 271 | 4.8 | 14.5 | 0.00 | 0.46 | 0.10 | 78 | 1009.6 |
| 20260906023107 | 31 | 276 | 8.0 | 14.5 | 0.00 | 0.46 | 0.10 | 78 | 1009.4 |
| 20260906021551 | 31 | 269 | 6.4 | 17.7 | 0.00 | 0.46 | 0.10 | 78 | 1009.4 |
| 20260906020022 | 31 | 258 | 8.0 | 16.1 | 0.00 | 0.46 | 0.10 | 79 | 1009.1 |
| 20260906014514 | 31 | 250 | 9.7 | 22.5 | 0.00 | 0.46 | 0.10 | 80 | 1008.9 |
| 20260906013057 | 31 | 282 | 4.8 | 17.7 | 0.00 | 0.46 | 0.10 | 79 | 1008.8 |
| 20260906011537 | 31 | 269 | 6.4 | 17.7 | 0.00 | 0.46 | 0.10 | 76 | 1008.5 |
| 20260906010130 | 31 | 250 | 6.4 | 17.7 | 0.00 | 0.46 | 0.10 | 74 | 1008.2 |
| 20260906004529 | 31 | 259 | 6.4 | 17.7 | 0.00 | 0.46 | 0.10 | 73 | 1008.1 |
| 20260906003015 | 32 | 220 | 4.8 | 19.3 | 0.00 | 0.46 | 0.10 | 74 | 1007.9 |
| 20260906001553 | 32 | 272 | 11.3 | 19.3 | 0.00 | 0.46 | 0.10 | 74 | 1007.8 |
| 20260906000023 | 32 | 271 | 8.0 | 17.7 | 0.00 | 0.46 | 0.10 | 74 | 1007.8 |
| 20260905234514 | 32 | 279 | 9.7 | 20.9 | 0.00 | 0.46 | 0.10 | 72 | 1007.9 |
| 20260905233117 | 32 | 274 | 9.7 | 16.1 | 0.00 | 0.46 | 0.10 | 71 | 1007.9 |
| 20260905231551 | 32 | 243 | 11.3 | 22.5 | 0.00 | 0.46 | 0.10 | 71 | 1007.8 |
| 20260905230148 | 32 | 227 | 8.0 | 19.3 | 0.00 | 0.46 | 0.10 | 71 | 1007.7 |
| 20260905224530 | 33 | 259 | 9.7 | 17.7 | 0.00 | 0.46 | 0.10 | 72 | 1007.8 |
| 20260905223013 | 32 | 291 | 9.7 | 20.9 | 0.00 | 0.46 | 0.10 | 72 | 1007.8 |
| 20260905221556 | 32 | 265 | 6.4 | 19.3 | 0.00 | 0.46 | 0.10 | 71 | 1007.9 |
| 20260905220013 | 32 | 265 | 11.3 | 22.5 | 0.00 | 0.46 | 0.10 | 72 | 1008.0 |
| 20260905214505 | 32 | 248 | 9.7 | 22.5 | 0.00 | 0.46 | 0.10 | 73 | 1008.3 |
| 20260905213103 | 33 | 249 | 11.3 | 22.5 | 0.00 | 0.46 | 0.10 | 70 | 1008.3 |
| 20260905211548 | 33 | 264 | 8.0 | 19.3 | 0.00 | 0.46 | 0.10 | 70 | 1008.6 |
| 20260905210146 | 33 | 244 | 9.7 | 24.1 | 0.00 | 0.46 | 0.10 | 70 | 1008.6 |
| 20260905204544 | 33 | 255 | 9.7 | 22.5 | 0.00 | 0.46 | 0.10 | 70 | 1008.8 |
| 20260905203038 | 33 | 281 | 12.9 | 20.9 | 0.00 | 0.46 | 0.10 | 70 | 1008.9 |
| 20260905201542 | 33 | 262 | 11.3 | 24.1 | 0.00 | 0.46 | 0.10 | 70 | 1009.3 |
| 20260905200136 | 32 | 226 | 12.9 | 19.3 | 0.00 | 0.46 | 0.10 | 71 | 1009.4 |
| 20260905194528 | 33 | 242 | 11.3 | 19.3 | 0.00 | 0.46 | 0.10 | 71 | 1009.9 |
| 20260905193012 | 33 | 238 | 9.7 | 25.7 | 0.00 | 0.46 | 0.10 | 68 | 1009.9 |
| 20260905191600 | 33 | 257 | 8.0 | 20.9 | 0.00 | 0.46 | 0.10 | 66 | 1010.0 |
| 20260905190030 | 33 | 267 | 9.7 | 17.7 | 0.00 | 0.46 | 0.10 | 67 | 1010.3 |
| 20260905184520 | 33 | 287 | 9.7 | 16.1 | 0.00 | 0.46 | 0.10 | 65 | 1010.4 |
| 20260905183117 | 33 | 250 | 6.4 | 17.7 | 0.00 | 0.46 | 0.10 | 67 | 1010.7 |
| 20260905181547 | 33 | 263 | 8.0 | 17.7 | 0.00 | 0.46 | 0.10 | 65 | 1010.9 |
| 20260905180132 | 33 | 254 | 9.7 | 17.7 | 0.00 | 0.46 | 0.10 | 60 | 1011.0 |
| 20260905174517 | 33 | 284 | 6.4 | 19.3 | 0.00 | 0.46 | 0.10 | 58 | 1011.0 |
| 20260905173100 | 33 | 301 | 6.4 | 14.5 | 0.00 | 0.46 | 0.10 | 61 | 1010.9 |
| 20260905173000 | 33 | 264 | 9.7 | 14.5 | 0.00 | 0.46 | 0.10 | 62 | 1010.9 |
| 20260905171554 | 33 | 335 | 0.0 | 11.3 | 0.00 | 0.46 | 0.10 | 65 | 1010.9 |
| 20260905170139 | 32 | 316 | 6.4 | 12.9 | 0.00 | 0.46 | 0.10 | 65 | 1011.1 |
| 20260905164511 | 32 | 290 | 1.6 | 14.5 | 0.00 | 0.46 | 0.10 | 67 | 1011.2 |
| 20260905163002 | 32 | 340 | 4.8 | 16.1 | 0.00 | 0.46 | 0.10 | 68 | 1011.3 |
| 20260905161541 | 31 | 313 | 6.4 | 12.9 | 0.00 | 0.46 | 0.10 | 68 | 1011.3 |
| 20260905160142 | 31 | 316 | 3.2 | 8.0 | 0.00 | 0.46 | 0.10 | 70 | 1011.3 |
| 20260905154540 | 31 | 360 | 0.0 | 8.0 | 0.00 | 0.46 | 0.10 | 74 | 1011.3 |
| 20260905153022 | 30 | 22 | 3.2 | 6.4 | 0.00 | 0.46 | 0.10 | 78 | 1011.4 |
| 20260905151503 | 29 | 57 | 0.0 | 4.8 | 0.00 | 0.46 | 0.10 | 79 | 1011.5 |
| 20260905150141 | 29 | 55 | 0.0 | 4.8 | 0.00 | 0.46 | 0.10 | 80 | 1011.5 |
| 20260905144528 | 29 | 72 | 3.2 | 6.4 | 0.00 | 0.46 | 0.10 | 80 | 1011.4 |
| 20260905143027 | 29 | 46 | 0.0 | 3.2 | 0.00 | 0.46 | 0.10 | 79 | 1011.3 |
| 20260905141507 | 28 | 46 | 0.0 | 3.2 | 0.00 | 0.46 | 0.10 | 81 | 1011.4 |
| 20260905140026 | 28 | 46 | 1.6 | 4.8 | 0.00 | 0.46 | 0.10 | 85 | 1011.3 |
| 20260905134524 | 27 | 38 | 1.6 | 4.8 | 0.00 | 0.46 | 0.10 | 86 | 1011.2 |
| 20260905133008 | 27 | 30 | 0.0 | 3.2 | 0.00 | 0.46 | 0.10 | 87 | 1010.9 |
| 20260905131612 | 27 | 30 | 0.0 | 3.2 | 0.00 | 0.46 | 0.10 | 87 | 1010.7 |
| 20260905130010 | 27 | 30 | 1.6 | 6.4 | 0.00 | 0.46 | 0.10 | 88 | 1010.4 |
| 20260905124544 | 27 | 32 | 3.2 | 6.4 | 0.00 | 0.46 | 0.10 | 87 | 1010.1 |
| 20260905123017 | 27 | 19 | 1.6 | 8.0 | 0.00 | 0.46 | 0.10 | 87 | 1010.0 |
| 20260905121504 | 27 | 20 | 1.6 | 6.4 | 0.00 | 0.46 | 0.10 | 87 | 1010.1 |
| 20260905120148 | 27 | 347 | 1.6 | 6.4 | 0.00 | 0.46 | 0.10 | 88 | 1010.1 |
| 20260905114525 | 27 | 30 | 3.2 | 4.8 | 0.00 | 0.46 | 0.10 | 87 | 1010.3 |
| 20260905113006 | 27 | 26 | 1.6 | 6.4 | 0.00 | 0.46 | 0.10 | 87 | 1010.3 |
| 20260905111555 | 27 | 343 | 0.0 | 3.2 | 0.00 | 0.46 | 0.10 | 86 | 1010.4 |
| 20260905110135 | 27 | 343 | 3.2 | 4.8 | 0.00 | 0.46 | 0.10 | 86 | 1010.5 |
| 20260905104509 | 27 | 311 | 0.0 | 3.2 | 0.00 | 0.46 | 0.10 | 86 | 1010.7 |
| 20260905103006 | 27 | 311 | 0.0 | 1.6 | 0.00 | 0.46 | 0.10 | 86 | 1010.8 |
| 20260905101559 | 27 | 311 | 0.0 | 3.2 | 0.00 | 0.46 | 0.10 | 86 | 1011.0 |
| 20260905100155 | 27 | 311 | 0.0 | 3.2 | 0.00 | 0.46 | 0.10 | 86 | 1010.9 |
| 20260905094556 | 27 | 311 | 0.0 | 3.2 | 0.00 | 0.46 | 0.10 | 86 | 1010.8 |
| 20260905093053 | 27 | 310 | 0.0 | 3.2 | 0.00 | 0.46 | 0.10 | 86 | 1010.9 |
| 20260905091546 | 27 | 310 | 0.0 | 3.2 | 0.00 | 0.46 | 0.10 | 86 | 1010.9 |
| 20260905090002 | 27 | 310 | 1.6 | 4.8 | 0.00 | 0.46 | 0.10 | 86 | 1010.9 |
| 20260905084504 | 27 | 5 | 0.0 | 4.8 | 0.00 | 0.46 | 0.10 | 87 | 1011.0 |
| 20260905083001 | 27 | 355 | 4.8 | 9.7 | 0.00 | 0.46 | 0.10 | 89 | 1011.1 |
| 20260905081600 | 27 | 24 | 1.6 | 9.7 | 0.03 | 0.46 | 0.10 | 91 | 1011.2 |
| 20260905080138 | 27 | 333 | 1.6 | 8.0 | 0.08 | 0.46 | 0.10 | 91 | 1011.1 |
| 20260905074521 | 27 | 298 | 1.6 | 8.0 | 0.33 | 0.46 | 0.10 | 91 | 1011.1 |
| 20260905073024 | 27 | 321 | 1.6 | 9.7 | 0.43 | 0.46 | 0.10 | 89 | 1011.0 |
| 20260905071502 | 27 | 331 | 4.8 | 9.7 | 0.41 | 0.43 | 0.08 | 87 | 1010.7 |